Mayrhofen, Austria 16 day weather forecast

Slopes altitude range 630 m - 3250m

Number of lifts: 170 Pistes: 649km

In some cases the lift and piste totals shown are for the ski domain (e.g. Three Valleys) rather than individual resort (e.g. Courchevel)

Overview

The 16 day weather forecast is fully updated 4 times every day.

    • Mon 22 APR 2019
    • Mon 22
    • 0C 7C
    • Tue 23 APR 2019
    • Tue 23
    • 0C 4C
    • Wed 24 APR 2019
    • Wed 24
    • 1C 7C
    • Thu 25 APR 2019
    • Thu 25
    • 1C 9C
    • Fri 26 APR 2019
    • Fri 26
    • 2C 7C
    • Sat 27 APR 2019
    • Sat 27
    • -3C 0C
    • Sun 28 APR 2019
    • Sun 28
    • 1C 7C
    • Mon 29 APR 2019
    • Mon 29
    • 2C 8C
    • Tue 30 APR 2019
    • Tue 30
    • -4C 0C
    • Wed 01 MAY 2019
    • Wed 01
    • -5C -1C
    • Thu 02 MAY 2019
    • Thu 02
    • -8C 1C
    • Fri 03 MAY 2019
    • Fri 03
    • -5C 4C
    • Sat 04 MAY 2019
    • Sat 04
    • -2C 9C
    • Sun 05 MAY 2019
    • Sun 05
    • 3C 11C
    • Mon 06 MAY 2019
    • Mon 06
    • 1C 4C
    • Tue 07 MAY 2019
    • Tue 07
    • -4C -2C

Date:

Time Type 0°C level Temp Chill Snow Cloud Speed Gust Dir Press
3:00 1732m -3°C -3_6 0cm 97% 6mph 7mph 1017mB
6:00 2264m -3°C -3_7 0cm 96% 7mph 8mph 1015mB
9:00 2743m 0°C 0_8 0cm 88% 8mph 9mph 1012mB
12:00 2839m 7°C 7_8 0cm 83% 8mph 9mph 1009mB
15:00 2944m 8°C 8_9 0cm 6% 9mph 10mph 1007mB
18:00 2626m 8°C 8_9 0cm 49% 9mph 10mph 1007mB
21:00 2169m 0°C 0_10 0cm 99% 10mph 13mph 1008mB
0:00 1912m -2°C -2_11 0cm 99% 11mph 13mph 1007mB
3:00 1962m -2°C -2_10 0cm 100% 10mph 13mph 1005mB
6:00 2231m -2°C -2_10 1cm 100% 10mph 12mph 1004mB
9:00 2436m 0°C 0_10 1cm 99% 10mph 13mph 1002mB
12:00 2514m 4°C 4_10 1cm 100% 10mph 12mph 1002mB
15:00 2447m 4°C 4_11 1cm 100% 11mph 13mph 1002mB
18:00 2277m 4°C 4_10 1cm 100% 10mph 13mph 1003mB
21:00 2224m -1°C -1_10 1cm 100% 10mph 13mph 1006mB
0:00 2037m -1°C -1_10 1cm 97% 10mph 12mph 1007mB
3:00 2193m -1°C -1_10 0cm 91% 10mph 13mph 1008mB
6:00 2347m -1°C -1_11 0cm 87% 11mph 14mph 1009mB
9:00 2539m 1°C 1_13 0cm 40% 13mph 15mph 1010mB
12:00 2698m 7°C 7_14 0cm 63% 14mph 18mph 1010mB
15:00 2670m 7°C 7_14 0cm 92% 14mph 22mph 1010mB
18:00 2636m 7°C 7_14 0cm 94% 14mph 20mph 1011mB
21:00 2565m 2°C 2_12 0cm 80% 12mph 16mph 1016mB
0:00 2508m 1°C 1_10 0cm 90% 10mph 13mph 1017mB
3:00 2372m 1°C 1_12 0cm 93% 12mph 15mph 1017mB
6:00 2333m 0°C 0_13 0cm 94% 13mph 15mph 1017mB
9:00 2598m 1°C 1_14 0cm 63% 14mph 18mph 1016mB
12:00 2844m 9°C 9_15 0cm 36% 15mph 21mph 1015mB
15:00 2910m 9°C 9_13 0cm 46% 13mph 17mph 1015mB
18:00 2890m 9°C 9_10 0cm 73% 10mph 13mph 1015mB
21:00 2733m 1°C 1_10 0cm 100% 10mph 13mph 1016mB
0:00 2604m 1°C 1_9 0cm 99% 9mph 12mph 1016mB
3:00 2454m 1°C 1_10 1cm 91% 10mph 13mph 1015mB
6:00 2434m 1°C 1_11 1cm 85% 11mph 14mph 1014mB
9:00 2565m 2°C 2_11 1cm 92% 11mph 15mph 1015mB
12:00 2628m 7°C 7_6 2cm 74% 6mph 7mph 1016mB
15:00 2012m 4°C 4_11 9cm 100% 11mph 12mph 1018mB
18:00 1501m 4°C 4_9 7cm 100% 9mph 13mph 1021mB
21:00 1511m -5°C -5_9 2cm 100% 9mph 12mph 1023mB
0:00 1479m -5°C -5_9 2cm 100% 9mph 12mph 1023mB
3:00 1446m -5°C -5_9 1cm 96% 9mph 12mph 1025mB
6:00 1665m -5°C -5_9 1cm 95% 9mph 12mph 1026mB
9:00 1900m -3°C -3_8 1cm 79% 8mph 9mph 1025mB
12:00 2096m 0°C 0_7 1cm 74% 7mph 8mph 1024mB
15:00 2209m 1°C 1_7 0cm 51% 7mph 9mph 1023mB
18:00 1931m 1°C 1_6 0cm 42% 6mph 7mph 1025mB
21:00 1598m -4°C -4_4 0cm 68% 4mph 5mph 1028mB
0:00 1576m -4°C -4_3 0cm 73% 3mph 3mph 1028mB
3:00 1555m -4°C -4_1 0cm 82% 1mph 2mph 1026mB
6:00 2512m -4°C -4_0 0cm 88% 0mph 1mph 1025mB
9:00 2631m 1°C 1_3 0cm 99% 3mph 3mph 1023mB
12:00 2807m 7°C 7_4 0cm 97% 4mph 4mph 1022mB
15:00 2891m 7°C 7_4 0cm 86% 4mph 5mph 1020mB
18:00 2866m 7°C 7_3 0cm 87% 3mph 3mph 1021mB
21:00 2267m 0°C 0_1 0cm 84% 1mph 2mph 1022mB
0:00 2230m -1°C -1_4 0cm 86% 4mph 5mph 1021mB
3:00 1983m -1°C -1_5 0cm 90% 5mph 6mph 1019mB
6:00 2637m -1°C -1_6 0cm 92% 6mph 7mph 1017mB
9:00 2701m 2°C 2_8 0cm 96% 8mph 8mph 1014mB
12:00 2904m 8°C 8_9 0cm 96% 9mph 10mph 1010mB
15:00 2902m 8°C 8_8 0cm 100% 8mph 9mph 1008mB
18:00 2782m 9°C 9_5 0cm 99% 5mph 6mph 1008mB
21:00 2677m 2°C 2_6 0cm 100% 6mph 7mph 1008mB
0:00 2546m 2°C 2_6 2cm 99% 6mph 8mph 1007mB
3:00 2390m 1°C 1_0 2cm 99% 0mph 2mph 1006mB
6:00 2139m 0°C 0_9 4cm 100% 9mph 10mph 1006mB
9:00 1687m -3°C -3_9 5cm 100% 9mph 11mph 1007mB
12:00 1681m 0°C 0_7 4cm 100% 7mph 8mph 1007mB
15:00 2006m -1°C -1_9 1cm 88% 9mph 11mph 1007mB
18:00 1751m -1°C -1_9 1cm 79% 9mph 11mph 1009mB
21:00 1233m -6°C -6_6 0cm 72% 6mph 7mph 1013mB
0:00 872m -9°C -9_5 0cm 76% 5mph 5mph 1014mB
3:00 580m -10°C -10_4 0cm 61% 4mph 5mph 1015mB
6:00 1327m -11°C -11_4 0cm 40% 4mph 5mph 1014mB
9:00 1797m -5°C -5_5 0cm 40% 5mph 4mph 1013mB
12:00 1985m -1°C -1_4 1cm 55% 4mph 4mph 1011mB
15:00 2041m 0°C 0_6 3cm 96% 6mph 6mph 1010mB
18:00 1848m 0°C 0_5 4cm 97% 5mph 7mph 1012mB
21:00 1474m -5°C -5_4 1cm 72% 4mph 4mph 1014mB
0:00 1070m -7°C -7_2 0cm 57% 2mph 3mph 1014mB
Afternoon 0.203125mm 1.0625 2050m 1°C 1_1 8cm 77% 1mph 2mph 1009mB
Morning 0.59375mm 0.75 1380m -4°C -4_5 6cm 75% 5mph 6mph 1014mB
Afternoon 0.015625mm 0.125 2425m 4°C 4_11 0cm 71% 11mph 13mph 1009mB
Morning 0.0260417mm 0.25 2014m 0°C 0_13 0cm 76% 13mph 17mph 1010mB
Afternoon 0.00520833mm 0 2786m 9°C 9_16 0cm 71% 16mph 18mph 1004mB
Morning 0.0416667mm 0 3275m 2°C 2_15 0cm 99% 15mph 22mph 1004mB
Afternoon 0.0260417mm 0.125 3051m 11°C 11_17 0cm 70% 17mph 20mph 1000mB
Morning 0.520833mm 5.125 2656m 4°C 4_14 0cm 84% 14mph 21mph 998mB
Afternoon 1.22917mm 2.625 2297m 4°C 4_8 21cm 100% 8mph 13mph 1001mB
Morning 0.505208mm 1.875 1736m -2°C -2_8 15cm 100% 8mph 12mph 1009mB
Afternoon 1.05729mm 0.125 1608m -2°C -2_11 8cm 100% 11mph 13mph 1013mB
Morning 0.817708mm 0.0625 1125m -6°C -6_7 7cm 100% 7mph 12mph 1021mB

16 day outlook at a glance

Forecast issued: 22/04/2019 08:47:49

Chat

Your comments and questions. In a resort? Let us know what it's like!


Characters left 250

For terms and conditions see Readers Comments on the Cookie and privacy policy page.